Weather History for Worcester, MA

Change the Weather History Date:

Thursday, February 21, 2013

  Actual Average Record
Temperature  
Mean Temperature 25 °F 28 °F  
Max Temperature 30 °F 36 °F 59 °F (1930)
Min Temperature 20 °F 21 °F -10 °F (1950)
Degree Days  
Heating Degree Days 40 37  
Month to date heating degree days 819 812  
Since 1 July heating degree days 4210 4585  
Cooling Degree Days 0 0  
Month to date cooling degree days 0 0  
Year to date cooling degree days 0 0  
Moisture  
Dew Point 10 °F    
Average Humidity 55    
Maximum Humidity 68    
Minimum Humidity 42    
Precipitation  
Precipitation T in 0.11 in 1.67 in (1996)
Month to date precipitation 3.11 2.38  
Year to date precipitation 5.06 5.87  
Sea Level Pressure  
Sea Level Pressure 29.89 in    
Wind  
Wind Speed 18 mph (WNW)    
Max Wind Speed 32 mph    
Max Gust Speed 42 mph    
Visibility 10 miles    
Events      
T = Trace of Precipitation, MM = Missing Value Source: NWS Daily Summary

Daily Weather History Graph

Daily Weather History Graph

Search for Another Location

Airport:

Trip Planner

Search our weather history database for the weather conditions in past years. The results will help you decide how hot, cold, wet, or windy it might be!

Date:

Astronomy

Feb. 21, 2013 Rise Set
Actual Time 6:34 AM EST 5:27 PM EST
Civil Twilight 6:06 AM EST 5:56 PM EST
Nautical Twilight 5:33 AM EST 6:28 PM EST
Astronomical Twilight 5:01 AM EST 7:01 PM EST
Moon 1:37 PM EST (2/21) 3:40 AM EST (2/21)
Length of Visible Light 11h 49m
Length of Day
10h 53m
Waxing Gibbous, 83% of the Moon is Illuminated
Feb 21
Waxing Gibbous
Feb 25
Full
Mar 4
Last Quarter
Mar 11
New
Mar 19
First Quarter

Hourly Weather History & Observations

Time (EST) Temp. Windchill Dew Point Humidity Pressure Visibility Wind Dir Wind Speed Gust Speed Precip Events Conditions
12:54 AM 21.9 °F 6.5 °F 12.0 °F 66% 29.73 in 10.0 mi West 20.7 mph 29.9 mph N/A   Clear
1:54 AM 21.9 °F 9.8 °F 12.0 °F 66% 29.79 in 10.0 mi West 12.7 mph - N/A   Partly Cloudy
2:54 AM 21.9 °F 9.2 °F 10.9 °F 63% 29.78 in 10.0 mi West 13.8 mph 23.0 mph N/A   Scattered Clouds
3:54 AM 21.0 °F 9.3 °F 10.0 °F 63% 29.79 in 10.0 mi West 11.5 mph 20.7 mph N/A   Mostly Cloudy
4:54 AM 21.0 °F 8.6 °F 9.0 °F 60% 29.80 in 10.0 mi West 12.7 mph 20.7 mph N/A   Overcast
5:54 AM 19.9 °F 7.3 °F 10.0 °F 65% 29.81 in 10.0 mi West 12.7 mph - N/A   Mostly Cloudy
6:54 AM 19.9 °F 8.6 °F 10.0 °F 65% 29.83 in 10.0 mi West 10.4 mph - N/A   Overcast
7:02 AM 19.9 °F 6.2 °F 10.0 °F 65% 29.78 in 10.0 mi West 15.0 mph - N/A   Overcast
7:52 AM 19.4 °F 3.2 °F 10.4 °F 68% 29.77 in 10.0 mi West 20.7 mph 28.8 mph 0.00 in   Scattered Clouds
7:54 AM 19.9 °F 5.2 °F 10.9 °F 68% 29.82 in 10.0 mi WNW 17.3 mph 28.8 mph 0.00 in   Scattered Clouds
8:54 AM 21.0 °F 3.6 °F 8.1 °F 57% 29.81 in 10.0 mi West 26.5 mph 31.1 mph N/A   Clear
9:54 AM 21.9 °F 5.1 °F 8.1 °F 55% 29.81 in 10.0 mi West 25.3 mph 36.8 mph N/A   Clear
10:54 AM 24.1 °F 11.5 °F 9.0 °F 53% 29.83 in 10.0 mi WNW 15.0 mph 28.8 mph N/A   Clear
11:54 AM 24.1 °F 10.6 °F 8.1 °F 51% 29.83 in 10.0 mi WNW 17.3 mph 31.1 mph N/A   Clear
12:54 PM 26.1 °F 11.3 °F 9.0 °F 49% 29.82 in 10.0 mi West 23.0 mph 29.9 mph N/A   Clear
1:54 PM 28.0 °F 14.9 °F 9.0 °F 45% 29.83 in 10.0 mi WNW 19.6 mph 32.2 mph N/A   Clear
2:54 PM 28.0 °F 14.9 °F 10.0 °F 47% 29.86 in 10.0 mi NW 19.6 mph 33.4 mph N/A   Clear
3:54 PM 27.0 °F 12.8 °F 10.0 °F 49% 29.88 in 10.0 mi NW 21.9 mph 36.8 mph N/A   Clear
4:54 PM 26.1 °F 14.5 °F 9.0 °F 49% 29.93 in 10.0 mi NW 13.8 mph 29.9 mph N/A   Clear
5:54 PM 25.0 °F 9.9 °F 9.0 °F 51% 29.99 in 10.0 mi NW 23.0 mph 33.4 mph N/A   Clear
6:54 PM 23.0 °F 8.0 °F 10.0 °F 58% 30.03 in 10.0 mi NW 20.7 mph 32.2 mph N/A   Clear
7:54 PM 23.0 °F 10.1 °F 12.0 °F 63% 30.06 in 10.0 mi NNW 15.0 mph 28.8 mph N/A   Clear
8:54 PM 23.0 °F 10.6 °F 12.0 °F 63% 30.10 in 10.0 mi NNW 13.8 mph 24.2 mph N/A   Clear
9:54 PM 23.0 °F 9.2 °F 12.9 °F 65% 30.13 in 10.0 mi NW 17.3 mph - N/A   Clear
10:54 PM 21.9 °F 7.3 °F 12.9 °F 68% 30.16 in 10.0 mi NW 18.4 mph - N/A   Clear
11:54 PM 21.9 °F 6.2 °F 14.0 °F 72% 30.22 in 10.0 mi WNW 21.9 mph 31.1 mph N/A   Clear